SAS1802 ESGG-LEAL

Flight info

Callsign SAS1802
Flight time N/A
Altitude 36000
Route VADIN DCT ABINO DCT ATTUS DCT GISEB DCT NIK DCT CIV DCT MEDIL/N0470F350 DCT KOVIN/N0472F370 DCT DUCRA UM728 RESMI UN857 DISAK DCT DIRMO DCT GUERE DCT EVPOK DCT AGN DCT ANETO DCT POSSY DCT XIMPE DCT RIMES N860 VLC
Aircraft CRJ9/M-SDFGIRWY/S

Departure

Time 2026-05-05 13:49
Airport Göteborg Landvetter Airport (ESGG)

Arrival

Time N/A
Airport Alicante-Elche Miguel Hernández Airport (LEAL)
Time Latitude Longitude Altitude Speed Heading
2026-05-05 13:22 57.66940 12.29440 509 ft 0 kts 117°
2026-05-05 13:39 57.66945 12.29421 508 ft 2 kts 116°
2026-05-05 13:39 57.66952 12.29393 508 ft 2 kts 116°
2026-05-05 13:39 57.66958 12.29364 508 ft 2 kts 99°
2026-05-05 13:39 57.66956 12.29335 508 ft 2 kts 53°
2026-05-05 13:40 57.66943 12.29318 508 ft 1 kts 25°
2026-05-05 13:40 57.66942 12.29317 508 ft 0 kts 25°
2026-05-05 13:44 57.66953 12.29326 508 ft 5 kts 18°
2026-05-05 13:44 57.66976 12.29312 508 ft 3 kts 311°
2026-05-05 13:44 57.66992 12.29265 508 ft 7 kts 297°
2026-05-05 13:45 57.67017 12.29169 508 ft 8 kts 296°
2026-05-05 13:45 57.67042 12.29085 508 ft 7 kts 313°
2026-05-05 13:45 57.67086 12.29062 509 ft 8 kts 16°
2026-05-05 13:45 57.67143 12.29109 509 ft 9 kts 25°
2026-05-05 13:46 57.67190 12.29150 510 ft 8 kts 26°
2026-05-05 13:46 57.67238 12.29195 510 ft 8 kts 26°
2026-05-05 13:46 57.67310 12.29259 511 ft 12 kts 25°
2026-05-05 13:46 57.67382 12.29324 512 ft 11 kts 25°
2026-05-05 13:47 57.67447 12.29320 512 ft 9 kts 315°
2026-05-05 13:47 57.67460 12.29216 512 ft 9 kts 269°
2026-05-05 13:47 57.67445 12.29100 510 ft 10 kts 238°
2026-05-05 13:47 57.67423 12.29039 510 ft 2 kts 235°
2026-05-05 13:48 57.67384 12.28978 510 ft 24 kts 207°
2026-05-05 13:48 57.67023 12.28651 509 ft 91 kts 206°
2026-05-05 13:48 57.66271 12.27964 488 ft 147 kts 206°
2026-05-05 13:48 57.65238 12.27149 662 ft 171 kts 206°
2026-05-05 13:49 57.64122 12.26128 1293 ft 178 kts 216°
2026-05-05 13:49 57.63064 12.25007 2142 ft 177 kts 213°
2026-05-05 13:49 57.61951 12.23837 2683 ft 190 kts 216°
2026-05-05 13:49 57.60715 12.22753 3162 ft 210 kts 200°
2026-05-05 13:50 57.59156 12.22441 3549 ft 239 kts 182°
2026-05-05 13:50 57.57438 12.22412 4264 ft 251 kts 185°
2026-05-05 13:50 57.55640 12.22297 4893 ft 269 kts 186°
2026-05-05 13:50 57.53730 12.22115 5571 ft 281 kts 186°
2026-05-05 13:51 57.51730 12.21941 6289 ft 290 kts 186°
2026-05-05 13:51 57.49744 12.21726 7327 ft 287 kts 189°
2026-05-05 13:51 57.47705 12.21295 7813 ft 302 kts 195°
2026-05-05 13:51 57.45594 12.20617 8426 ft 314 kts 193°
2026-05-05 13:52 57.43517 12.19515 8961 ft 309 kts 228°
2026-05-05 13:52 57.42302 12.16435 9892 ft 293 kts 234°
2026-05-05 13:52 57.40807 12.13834 10522 ft 306 kts 224°
2026-05-05 13:52 57.39152 12.11354 11285 ft 305 kts 228°
2026-05-05 13:53 57.37588 12.08712 12091 ft 304 kts 227°
2026-05-05 13:53 57.35756 12.06639 12823 ft 317 kts 208°
2026-05-05 13:53 57.33850 12.04650 13273 ft 314 kts 225°
2026-05-05 13:53 57.32189 12.02058 14057 ft 315 kts 225°
2026-05-05 13:54 57.30469 11.99375 14197 ft 334 kts 225°
2026-05-05 13:54 57.28667 11.96559 14730 ft 335 kts 225°
2026-05-05 13:54 57.26919 11.93913 15960 ft 320 kts 224°
2026-05-05 13:54 57.25162 11.91257 16088 ft 337 kts 224°
2026-05-05 13:55 57.23464 11.88354 16810 ft 325 kts 237°
2026-05-05 13:55 57.21986 11.85167 17302 ft 334 kts 224°
2026-05-05 13:55 57.20188 11.82656 18607 ft 301 kts 223°
2026-05-05 13:55 57.18653 11.80543 20375 ft 265 kts 223°
2026-05-05 13:56 57.17124 11.78410 19993 ft 294 kts 223°